FW2047 Weather Reports


time (UTC)temp
F
wind
direction
speed
knots
gust
knots
rain 1hr
in
rain 24hr
in
rain mn
in
humidity
%
barometer
mb
20260507213025 45 240 0.9 1.7 0.00 0.01 0.01 83 1012.0
20260507211511 46 240 0.0 0.9 0.00 0.01 0.01 84 1012.1
20260507210024 46 240 0.0 1.7 0.00 0.01 0.01 82 1012.0
20260507204509 46 240 0.9 1.7 0.00 0.01 0.01 82 1011.8
20260507203017 46 240 0.0 1.7 0.00 0.01 0.01 81 1011.7
20260507201514 46 240 0.9 1.7 0.00 0.01 0.01 81 1011.7
20260507200019 46 240 0.9 2.6 0.00 0.01 0.01 79 1011.5
20260507194508 46 240 0.0 1.7 0.00 0.01 0.01 78 1011.2
20260507193012 47 240 0.0 0.9 0.00 0.01 0.01 77 1011.0
20260507191519 47 240 0.0 1.7 0.00 0.01 0.01 76 1010.9
20260507190007 47 240 0.0 3.5 0.00 0.01 0.01 73 1010.7
20260507184506 49 266 2.6 10.4 0.00 0.01 0.01 69 1010.6
20260507183006 50 306 4.3 8.7 0.00 0.01 0.01 67 1010.5
20260507181506 50 296 5.2 13.0 0.00 0.01 0.01 66 1010.2
20260507180005 50 342 5.2 9.6 0.00 0.01 0.01 66 1010.2
20260507174504 51 355 5.2 8.7 0.00 0.01 0.01 64 1010.1
20260507173013 51 333 3.5 9.6 0.00 0.01 0.01 63 1010.2
20260507171503 52 309 5.2 10.4 0.00 0.01 0.01 63 1010.1
20260507170003 52 233 6.1 13.0 0.00 0.01 0.01 61 1010.1
20260507164502 53 288 5.2 13.9 0.00 0.01 0.01 59 1010.1
20260507163002 54 309 4.3 12.2 0.00 0.01 0.01 58 1010.2
20260507161502 55 323 4.3 9.6 0.00 0.01 0.01 54 1010.2
20260507160002 54 319 3.5 12.2 0.00 0.01 0.01 58 1010.3
20260507154601 56 266 5.2 13.9 0.00 0.02 0.01 55 1010.2
20260507153102 55 327 4.3 15.6 0.00 0.02 0.01 58 1010.2
20260507151558 54 311 6.1 13.0 0.00 0.02 0.01 61 1010.2
20260507150057 56 23 1.7 9.6 0.00 0.02 0.01 55 1010.3
20260507144601 55 273 1.7 8.7 0.00 0.02 0.01 55 1010.3
20260507143059 57 340 4.3 9.6 0.00 0.02 0.01 52 1010.5
20260507141610 56 306 7.0 10.4 0.00 0.02 0.01 55 1010.5
20260507140101 57 194 1.7 6.1 0.00 0.02 0.01 52 1010.6
20260507134601 56 283 3.5 8.7 0.00 0.03 0.01 54 1010.6
20260507133052 56 232 2.6 8.7 0.00 0.03 0.01 50 1010.7
20260507131551 59 202 0.9 8.7 0.00 0.03 0.01 49 1010.8
20260507130051 58 142 1.7 10.4 0.00 0.03 0.01 55 1011.0
20260507124552 59 152 4.3 7.8 0.00 0.06 0.01 53 1011.3
20260507123052 59 167 4.3 8.7 0.00 0.06 0.01 53 1011.2
20260507121547 59 149 1.7 7.0 0.00 0.06 0.01 48 1011.3
20260507120048 59 65 4.3 7.0 0.00 0.06 0.01 55 1011.4
20260507114552 58 68 1.7 7.8 0.00 0.11 0.01 56 1011.5
20260507113043 57 63 3.5 7.0 0.00 0.11 0.01 53 1011.7
20260507111550 56 65 2.6 6.1 0.00 0.11 0.01 59 1011.7
20260507110038 55 71 2.6 5.2 0.00 0.11 0.01 58 1011.8
20260507104535 56 79 0.9 5.2 0.00 0.11 0.01 56 1012.0
20260507103034 55 91 0.0 4.3 0.00 0.11 0.01 57 1012.0
20260507101530 54 135 1.7 7.0 0.00 0.11 0.01 62 1012.1
20260507100032 53 79 0.9 6.1 0.00 0.11 0.01 69 1012.2
20260507094526 54 77 2.6 7.0 0.00 0.11 0.01 69 1012.1
20260507093021 54 83 1.7 6.1 0.00 0.11 0.01 63 1012.2
20260507091517 52 75 0.9 7.0 0.00 0.11 0.01 64 1012.2
20260507090013 51 123 0.9 5.2 0.00 0.11 0.01 68 1012.2
20260507084512 51 65 1.7 4.3 0.00 0.11 0.01 69 1012.1
20260507083005 50 73 0.9 6.1 0.00 0.11 0.01 65 1012.1
20260507081602 50 53 2.6 6.1 0.00 0.11 0.01 73 1012.3
20260507080056 48 89 1.7 6.1 0.01 0.11 0.01 70 1012.5
20260507074556 48 69 0.9 4.3 0.01 0.15 0.01 66 1012.6
20260507073046 48 54 1.7 5.2 0.01 0.15 0.01 77 1012.5
20260507071542 46 74 2.6 5.2 0.01 0.15 0.01 73 1012.5
20260507070042 45 72 0.0 5.2 0.00 0.14 0.00 75 1012.5
20260507064533 45 74 2.6 5.2 0.00 0.17 0.00 79 1012.4
20260507063031 44 79 1.7 5.2 0.00 0.17 0.00 84 1012.5
20260507061527 42 57 1.7 4.3 0.00 0.17 0.00 86 1012.6
20260507060025 40 29 0.9 2.6 0.00 0.17 0.00 93 1012.7
20260507054515 39 348 0.9 1.7 0.00 0.20 0.00 97 1012.6
20260507053012 35 347 0.0 1.7 0.00 0.20 0.00 97 1012.4
20260507051511 35 347 0.9 1.7 0.00 0.20 0.00 97 1012.4
20260507050010 34 347 0.0 1.7 0.00 0.20 0.00 96 1012.3
20260507044507 34 347 0.0 1.7 0.00 0.28 0.00 96 1012.2
20260507043005 34 347 0.9 2.6 0.00 0.28 0.00 96 1012.0
20260507041510 34 350 0.9 1.7 0.00 0.28 0.00 96 1011.8
20260507040002 34 350 0.0 0.9 0.00 0.28 0.00 96 1011.7
20260507034506 34 350 0.0 0.9 0.00 0.28 0.00 96 1011.6
20260507033002 35 350 0.9 3.5 0.00 0.28 0.00 96 1011.6
20260507031605 34 350 0.9 1.7 0.00 0.28 0.00 96 1011.5
20260507030159 35 350 0.9 1.7 0.00 0.28 0.00 96 1011.5
20260507024604 35 350 0.0 0.9 0.00 0.28 0.00 96 1011.6
20260507023110 35 350 0.0 1.7 0.00 0.28 0.00 96 1011.5
20260507021555 35 350 0.9 1.7 0.00 0.28 0.00 96 1011.5
20260507020053 36 350 0.0 0.9 0.00 0.28 0.00 96 1011.4
20260507014604 36 350 0.0 0.9 0.00 0.28 0.00 96 1011.4
20260507013110 36 350 0.9 4.3 0.00 0.28 0.00 96 1011.3
20260507011550 36 350 0.9 3.5 0.00 0.28 0.00 96 1011.3
20260507010049 36 350 1.7 3.5 0.00 0.28 0.00 96 1011.3
20260507004549 36 350 0.9 4.3 0.00 0.28 0.00 96 1011.3
20260507003047 36 350 1.7 4.3 0.00 0.28 0.00 96 1011.2
20260507001606 36 350 0.9 2.6 0.00 0.28 0.00 96 1011.2
20260507000048 36 350 0.0 3.5 0.00 0.28 0.00 96 1011.1
20260506234545 36 350 0.0 3.5 0.00 0.30 0.00 96 1011.1
20260506233046 36 350 0.9 1.7 0.00 0.30 0.00 96 1011.1
20260506231546 36 350 0.9 1.7 0.00 0.30 0.00 96 1011.1
20260506230039 36 350 0.0 3.5 0.00 0.30 0.00 96 1011.0
20260506224537 37 350 0.0 1.7 0.00 0.31 0.00 96 1011.0
20260506223036 37 350 0.9 1.7 0.00 0.31 0.00 96 1011.0
20260506221535 37 350 1.7 2.6 0.00 0.31 0.00 96 1011.0
20260506220031 37 350 0.0 1.7 0.00 0.31 0.00 96 1010.9
20260506214531 37 350 0.9 3.5 0.00 0.31 0.31 96 1010.9